Location: Zagreb
(45.8000°N, 16.0000°E)
Time: 19:56:52
(UTC+02:00)

Explorer 7 - Visible Passes

Search period start: 09 August 2020 00:00
Search period end: 19 August 2020 00:00
Orbit: 485 x 679 km, 50.3° (Epoch: 08 August)

Date Brightness Start Highest point End Pass type
(mag) Time Alt. Az. Time Alt. Az. Time Alt. Az.
09 Aug 7.2 22:19:58 10° W 22:23:49 57° NNW 22:27:05 13° ENE visible
10 Aug 8.4 00:01:04 10° WNW 00:03:23 30° NW 00:03:23 30° NW visible
10 Aug 6.7 20:44:10 10° SW 20:48:06 61° SSE 20:51:53 10° ENE visible
10 Aug 7.5 22:24:55 10° W 22:28:41 47° NNW 22:31:30 16° ENE visible
11 Aug 8.6 00:05:56 10° WNW 00:07:47 25° NW 00:07:47 25° NW visible
11 Aug 6.6 20:48:51 10° WSW 20:52:52 87° SSE 20:56:42 10° ENE visible
11 Aug 7.7 22:29:53 10° WNW 22:33:35 42° N 22:35:51 20° ENE visible
12 Aug 8.9 00:10:46 10° WNW 00:12:08 20° WNW 00:12:08 20° WNW visible
12 Aug 7.0 20:53:41 10° WSW 20:57:40 69° NNW 21:01:30 10° ENE visible
12 Aug 7.8 22:34:49 10° WNW 22:38:30 41° N 22:40:09 26° NE visible
13 Aug 9.2 00:15:33 10° WNW 00:16:26 16° WNW 00:16:26 16° WNW visible
13 Aug 7.4 20:58:36 10° W 21:02:31 54° NNW 21:06:17 10° ENE visible
13 Aug 7.7 22:39:43 10° WNW 22:43:26 42° N 22:44:25 34° NE visible
14 Aug 9.5 00:20:21 10° WNW 00:20:42 12° WNW 00:20:42 12° WNW visible
14 Aug 7.7 21:03:33 10° W 21:07:24 46° N 21:11:06 10° ENE visible
14 Aug 7.3 22:44:34 10° WNW 22:48:20 47° N 22:48:41 45° NNE visible
15 Aug 7.8 21:08:31 10° WNW 21:12:19 42° N 21:15:58 10° ENE visible
15 Aug 7.1 22:49:24 10° WNW 22:52:57 56° N 22:52:57 56° N visible
16 Aug 7.7 21:13:27 10° WNW 21:17:14 41° N 21:20:52 10° ENE visible
16 Aug 7.3 22:54:11 10° WNW 22:57:14 52° NW 22:57:14 52° NW visible
17 Aug 7.6 21:18:20 10° WNW 21:22:09 44° N 21:25:14 14° ENE visible
17 Aug 7.8 22:58:59 10° WNW 23:01:31 39° WNW 23:01:31 39° WNW visible
18 Aug 7.3 21:23:11 10° WNW 21:27:02 50° NNE 21:29:32 19° E visible
18 Aug 8.3 23:03:49 10° WNW 23:05:49 27° W 23:05:49 27° W visible
